STARLINK-38182, 100148

Orbit data source: Space-Track

STARLINK-38182, 100148 is a payload satellite owned by SpaceX/Seattle (US) in SSO that was launched on Sat, 25 Jul 2026 UTC launched from the Air Force Western Test Range (AFWTR). Payload-class satellites include a variety of spacecraft equipped with specific instruments for various scientific and technological missions. These include communications satellites like Starlink; space stations such as the ISS; scientific satellites like the Hubble; Earth observation satellites from companies like Planet Labs, Umbra, and HawkEye 360; GPS; miniature CubeSats for education and research; and military/defense satellites.

Loading next visibility...
Identifier
100148, 2026-171A
Orbit
SSO
Country
Flag of USUS
Related business
Manufacturer
SpaceX/Seattle
Mission
Operational spacecraft
Bus & Motor
STARLINK V2MO, Unknown motor
Mass
575 kg wet, ~530 kg dry
Launch date (UTC)
2026-07-25 (3 weeks ago)
Launch vehicle
Unknown
Launch site
Air Force Western Test Range (AFWTR)
Object type
Payload
Rocket body
Debris
Shape & HBR
BOX + PAN, 17.7 m
Radar Cross Section
RCS unknown

Expand to show TLE details & history
Last TLE update: 8 hours ago

TLE from 8 hours ago
0 STARLINK-38182
1 A0148U 26171A   26227.60330536  .00143073  00000-0  94461-3 0  9990
2 A0148  97.2828 259.4764 0000940 119.2931 240.8428 15.75177752  3320
Epoch: 2026-08-15T14:28Z
TLE epoch observation values (Epoch: 2026-08-15T14:28:45.583Z)
Latitude
-0.00002°
Longitude
78.27466°
Altitude
347.602 km
Speed
7.7 km/s
True Right ascension
17h 17m 54s
True Declination
0° 00' 00"
Sunlit
Object was in full shadow at epoch
Visualization orbit readout
Latitude
Unknown
Longitude
Unknown
Altitude
Unknown
Speed
Unknown
Apparent Right ascension
Unknown
Apparent Declination
Unknown
Sunlit
N/A
Visualization observer readout
Local Sidereal Time
12:47:21
Azimuth
Unknown
Elevation
Unknown
Doppler factor
Unknown
Orbital elements
Apogee altitude
341.644 km
Perigee altitude
340.381 km
Semi-major axis
6,719.15 km
Eccentricity
0.00009
Inclination
97.2828°
RAAN
259.4764°
Arg. of periapsis
119.2931°
True anomaly
240.83339°
Mean anomaly
240.8428°
Eccentric anomaly
240.8381°
Mean motion
3.94068 °/min
Orbital period
91.35 mins
BSTAR
0.00094461
Loading maneuver chart data...
Computing Atmospheric mass density...
Loading historical data...
Loading historical data...
Loading historical data...
Loading historical data...
Loading historical data...
Loading historical data...
Loading historical data...

Documentation

Showing up to 5 results
|